Time,TemperatureF,DewpointF,PressureIn,WindDirection,WindDirectionDegrees,WindSpeedMPH,WindSpeedGustMPH,Humidity,HourlyPrecipIn,Conditions,Clouds,dailyrainin,SoftwareType,DateUTC
2013-06-23 00:00:00,65.9,41.0,29.67,ENE,57,0.0,2.0,40,0.00,,,0.00,weatherlink.com 1.10,2013-06-23 08:00:00,
2013-06-23 00:15:00,65.1,40.0,29.67,ENE,57,0.0,0.0,40,0.00,,,0.00,weatherlink.com 1.10,2013-06-23 08:15:00,
2013-06-23 00:30:00,63.8,40.0,29.67,ENE,57,0.0,0.0,42,0.00,,,0.00,weatherlink.com 1.10,2013-06-23 08:30:00,
2013-06-23 00:45:00,64.3,40.0,29.67,ENE,62,0.0,0.0,41,0.00,,,0.00,weatherlink.com 1.10,2013-06-23 08:45:00,
2013-06-23 01:00:00,64.3,39.0,29.67,ENE,63,0.0,0.0,40,0.00,,,0.00,weatherlink.com 1.10,2013-06-23 09:00:00,
2013-06-23 01:15:00,63.4,40.0,29.67,ENE,61,0.0,0.0,42,0.00,,,0.00,weatherlink.com 1.10,2013-06-23 09:15:00,
2013-06-23 01:30:00,63.0,40.0,29.67,West,276,0.0,0.0,43,0.00,,,0.00,weatherlink.com 1.10,2013-06-23 09:30:00,
2013-06-23 01:45:00,63.5,40.0,29.67,West,262,0.0,2.0,42,0.00,,,0.00,weatherlink.com 1.10,2013-06-23 09:45:00,
2013-06-23 02:00:00,62.1,39.0,29.67,West,262,0.0,1.0,43,0.00,,,0.00,weatherlink.com 1.10,2013-06-23 10:00:00,
2013-06-23 02:15:00,61.8,39.0,29.67,West,262,0.0,1.0,44,0.00,,,0.00,weatherlink.com 1.10,2013-06-23 10:15:00,
2013-06-23 02:30:00,61.0,39.0,29.67,West,262,0.0,0.0,45,0.00,,,0.00,weatherlink.com 1.10,2013-06-23 10:30:00,
2013-06-23 02:46:00,60.9,39.0,29.67,West,262,0.0,0.0,44,0.00,,,0.00,weatherlink.com 1.10,2013-06-23 10:46:00,
2013-06-23 03:00:00,61.1,39.0,29.67,West,262,0.0,0.0,44,0.00,,,0.00,weatherlink.com 1.10,2013-06-23 11:00:00,
2013-06-23 03:15:00,61.4,39.0,29.67,West,262,0.0,0.0,43,0.00,,,0.00,weatherlink.com 1.10,2013-06-23 11:15:00,
2013-06-23 03:30:00,62.0,39.0,29.67,West,262,0.0,0.0,43,0.00,,,0.00,weatherlink.com 1.10,2013-06-23 11:30:00,
2013-06-23 03:45:00,60.0,39.0,29.67,West,262,0.0,0.0,47,0.00,,,0.00,weatherlink.com 1.10,2013-06-23 11:45:00,
2013-06-23 04:00:00,59.6,39.0,29.67,SE,141,0.0,0.0,47,0.00,,,0.00,weatherlink.com 1.10,2013-06-23 12:00:00,
2013-06-23 04:15:00,60.1,40.0,29.67,ESE,102,0.0,1.0,47,0.00,,,0.00,weatherlink.com 1.10,2013-06-23 12:15:00,
2013-06-23 04:30:00,58.7,39.0,29.67,ESE,102,0.0,0.0,49,0.00,,,0.00,weatherlink.com 1.10,2013-06-23 12:30:00,
2013-06-23 04:45:00,60.8,40.0,29.67,NNW,345,1.0,1.0,46,0.00,,,0.00,weatherlink.com 1.10,2013-06-23 12:45:00,
2013-06-23 05:00:00,62.6,40.0,29.67,NNE,26,0.0,1.0,44,0.00,,,0.00,weatherlink.com 1.10,2013-06-23 13:00:00,
2013-06-23 05:15:00,62.6,40.0,29.67,NNE,18,0.0,4.0,43,0.00,,,0.00,weatherlink.com 1.10,2013-06-23 13:15:00,
2013-06-23 05:30:00,63.6,39.0,29.67,NE,36,1.0,1.0,41,0.00,,,0.00,weatherlink.com 1.10,2013-06-23 13:30:00,
2013-06-23 05:45:00,63.6,39.0,29.67,ENE,71,0.0,2.0,41,0.00,,,0.00,weatherlink.com 1.10,2013-06-23 13:45:00,
2013-06-23 06:00:00,63.6,40.0,29.67,NNW,337,0.0,2.0,42,0.00,,,0.00,weatherlink.com 1.10,2013-06-23 14:00:00,
2013-06-23 06:15:00,64.2,41.0,29.66,NE,53,0.0,2.0,43,0.00,,,0.00,weatherlink.com 1.10,2013-06-23 14:15:00,
2013-06-23 06:30:00,65.4,41.0,29.67,NE,56,0.0,1.0,41,0.00,,,0.00,weatherlink.com 1.10,2013-06-23 14:30:00,
2013-06-23 06:45:00,65.2,42.0,29.67,East,101,0.0,0.0,43,0.00,,,0.00,weatherlink.com 1.10,2013-06-23 14:45:00,
2013-06-23 07:15:00,66.6,43.0,29.66,NNW,348,1.0,1.0,42,0.00,,,0.00,weatherlink.com 1.10,2013-06-23 15:15:00,
2013-06-23 07:31:00,67.2,44.0,29.67,ESE,117,0.0,1.0,44,0.00,,,0.00,weatherlink.com 1.10,2013-06-23 15:31:00,
2013-06-23 07:45:00,67.5,43.0,29.66,NE,43,0.0,1.0,42,0.00,,,0.00,weatherlink.com 1.10,2013-06-23 15:45:00,
2013-06-23 08:01:00,68.2,45.0,29.66,ESE,108,1.0,1.0,44,0.00,,,0.00,weatherlink.com 1.10,2013-06-23 16:01:00,
2013-06-23 08:16:00,68.3,46.0,29.66,ESE,120,1.0,2.0,45,0.00,,,0.00,weatherlink.com 1.10,2013-06-23 16:16:00,
2013-06-23 08:31:00,68.7,46.0,29.65,ENE,68,1.0,1.0,44,0.00,,,0.00,weatherlink.com 1.10,2013-06-23 16:31:00,
2013-06-23 08:46:00,69.8,46.0,29.65,ENE,66,2.0,2.0,43,0.00,,,0.00,weatherlink.com 1.10,2013-06-23 16:46:00,
2013-06-23 09:16:00,69.5,47.0,29.65,West,262,0.0,1.0,44,0.00,,,0.00,weatherlink.com 1.10,2013-06-23 17:16:00,
2013-06-23 09:31:00,71.8,47.0,29.65,SW,217,0.0,2.0,41,0.00,,,0.00,weatherlink.com 1.10,2013-06-23 17:31:00,
2013-06-23 09:46:00,71.7,47.0,29.64,West,271,0.0,2.0,42,0.00,,,0.00,weatherlink.com 1.10,2013-06-23 17:46:00,
2013-06-23 10:01:00,71.0,46.0,29.64,WNW,294,1.0,2.0,41,0.00,,,0.00,weatherlink.com 1.10,2013-06-23 18:01:00,
2013-06-23 10:16:00,71.7,46.0,29.64,WSW,257,0.0,2.0,40,0.00,,,0.00,weatherlink.com 1.10,2013-06-23 18:16:00,
2013-06-23 10:31:00,72.0,46.0,29.64,SW,232,2.0,2.0,40,0.00,,,0.00,weatherlink.com 1.10,2013-06-23 18:31:00,
2013-06-23 10:46:00,72.8,46.0,29.63,West,264,0.0,3.0,39,0.00,,,0.00,weatherlink.com 1.10,2013-06-23 18:46:00,
2013-06-23 11:01:00,73.6,46.0,29.63,West,278,2.0,3.0,38,0.00,,,0.00,weatherlink.com 1.10,2013-06-23 19:01:00,
2013-06-23 11:16:00,74.2,46.0,29.63,SE,146,0.0,2.0,37,0.00,,,0.00,weatherlink.com 1.10,2013-06-23 19:16:00,
2013-06-23 11:31:00,75.4,46.0,29.62,NNE,18,0.0,3.0,35,0.00,,,0.00,weatherlink.com 1.10,2013-06-23 19:31:00,
2013-06-23 11:46:00,76.6,46.0,29.62,SSE,163,3.0,4.0,34,0.00,,,0.00,weatherlink.com 1.10,2013-06-23 19:46:00,
2013-06-23 12:01:00,76.9,45.0,29.61,WSW,250,1.0,6.0,32,0.00,,,0.00,weatherlink.com 1.10,2013-06-23 20:01:00,
2013-06-23 12:16:00,77.4,45.0,29.61,NE,52,4.0,5.0,32,0.00,,,0.00,weatherlink.com 1.10,2013-06-23 20:16:00,
2013-06-23 12:31:00,77.7,46.0,29.61,South,170,2.0,7.0,32,0.00,,,0.00,weatherlink.com 1.10,2013-06-23 20:31:00,
2013-06-23 12:46:00,77.9,45.0,29.61,SW,214,1.0,7.0,31,0.00,,,0.00,weatherlink.com 1.10,2013-06-23 20:46:00,
2013-06-23 13:01:00,78.1,46.0,29.60,SE,131,3.0,6.0,32,0.00,,,0.00,weatherlink.com 1.10,2013-06-23 21:01:00,
2013-06-23 13:16:00,79.0,44.0,29.60,ESE,117,2.0,7.0,29,0.00,,,0.00,weatherlink.com 1.10,2013-06-23 21:16:00,
2013-06-23 13:31:00,78.9,44.0,29.60,East,101,2.0,8.0,29,0.00,,,0.00,weatherlink.com 1.10,2013-06-23 21:31:00,
2013-06-23 13:46:00,80.2,44.0,29.60,West,273,3.0,5.0,28,0.00,,,0.00,weatherlink.com 1.10,2013-06-23 21:46:00,
2013-06-23 14:01:00,80.6,41.0,29.59,ENE,70,6.0,6.0,24,0.00,,,0.00,weatherlink.com 1.10,2013-06-23 22:01:00,
2013-06-23 14:16:00,79.2,43.0,29.59,North,351,3.0,7.0,28,0.00,,,0.00,weatherlink.com 1.10,2013-06-23 22:16:00,
2013-06-23 14:31:00,78.1,44.0,29.59,ENE,70,3.0,5.0,30,0.00,,,0.00,weatherlink.com 1.10,2013-06-23 22:31:00,
2013-06-23 14:46:00,77.3,43.0,29.59,NNE,32,3.0,9.0,29,0.00,,,0.00,weatherlink.com 1.10,2013-06-23 22:46:00,
2013-06-23 15:02:00,79.4,43.0,29.59,SSE,153,1.0,6.0,27,0.00,,,0.00,weatherlink.com 1.10,2013-06-23 23:02:00,
2013-06-23 15:16:00,79.0,41.0,29.58,ENE,57,1.0,6.0,26,0.00,,,0.00,weatherlink.com 1.10,2013-06-23 23:16:00,
2013-06-23 15:32:00,80.1,42.0,29.58,ENE,68,5.0,6.0,26,0.00,,,0.00,weatherlink.com 1.10,2013-06-23 23:32:00,
2013-06-23 15:47:00,80.0,42.0,29.57,ENE,57,1.0,4.0,26,0.00,,,0.00,weatherlink.com 1.10,2013-06-23 23:47:00,
2013-06-23 16:02:00,80.5,42.0,29.57,ENE,74,2.0,5.0,25,0.00,,,0.00,weatherlink.com 1.10,2013-06-24 00:02:00,
2013-06-23 16:17:00,79.6,42.0,29.56,NW,307,3.0,5.0,26,0.00,,,0.00,weatherlink.com 1.10,2013-06-24 00:17:00,
2013-06-23 16:32:00,79.6,41.0,29.56,NNW,336,1.0,5.0,25,0.00,,,0.00,weatherlink.com 1.10,2013-06-24 00:32:00,
2013-06-23 16:47:00,79.2,40.0,29.56,East,84,2.0,5.0,25,0.00,,,0.00,weatherlink.com 1.10,2013-06-24 00:47:00,
2013-06-23 17:02:00,80.3,40.0,29.55,WNW,291,2.0,3.0,24,0.00,,,0.00,weatherlink.com 1.10,2013-06-24 01:02:00,
2013-06-23 17:17:00,80.9,41.0,29.55,East,81,1.0,3.0,24,0.00,,,0.00,weatherlink.com 1.10,2013-06-24 01:17:00,
2013-06-23 17:32:00,79.7,39.0,29.55,ENE,68,5.0,6.0,23,0.00,,,0.00,weatherlink.com 1.10,2013-06-24 01:32:00,
2013-06-23 17:47:00,78.9,40.0,29.55,NW,319,1.0,3.0,25,0.00,,,0.00,weatherlink.com 1.10,2013-06-24 01:47:00,
2013-06-23 18:02:00,79.1,39.0,29.55,East,101,2.0,2.0,24,0.00,,,0.00,weatherlink.com 1.10,2013-06-24 02:02:00,
2013-06-23 18:17:00,77.6,37.0,29.55,ENE,74,1.0,1.0,23,0.00,,,0.00,weatherlink.com 1.10,2013-06-24 02:17:00,
2013-06-23 18:32:00,77.0,37.0,29.54,ENE,74,0.0,1.0,24,0.00,,,0.00,weatherlink.com 1.10,2013-06-24 02:32:00,
2013-06-23 18:47:00,76.1,42.0,29.55,NE,54,1.0,5.0,30,0.00,,,0.00,weatherlink.com 1.10,2013-06-24 02:47:00,
2013-06-23 19:02:00,75.0,43.0,29.54,North,5,2.0,5.0,32,0.00,,,0.00,weatherlink.com 1.10,2013-06-24 03:02:00,
2013-06-23 19:17:00,77.6,45.0,29.54,East,81,1.0,4.0,32,0.00,,,0.00,weatherlink.com 1.10,2013-06-24 03:17:00,
2013-06-23 19:32:00,80.4,44.0,29.54,NE,56,2.0,3.0,28,0.00,,,0.00,weatherlink.com 1.10,2013-06-24 03:32:00,
2013-06-23 19:47:00,80.7,45.0,29.54,ESE,103,1.0,4.0,28,0.00,,,0.00,weatherlink.com 1.10,2013-06-24 03:47:00,
2013-06-23 20:02:00,79.3,45.0,29.54,NE,50,3.0,5.0,30,0.00,,,0.00,weatherlink.com 1.10,2013-06-24 04:02:00,
2013-06-23 20:17:00,77.2,47.0,29.55,NE,51,6.0,9.0,34,0.00,,,0.00,weatherlink.com 1.10,2013-06-24 04:17:00,
2013-06-23 20:32:00,76.5,48.0,29.55,NE,53,4.0,7.0,36,0.00,,,0.00,weatherlink.com 1.10,2013-06-24 04:32:00,
2013-06-23 20:47:00,75.0,48.0,29.55,NE,56,1.0,10.0,38,0.00,,,0.00,weatherlink.com 1.10,2013-06-24 04:47:00,
2013-06-23 21:02:00,75.0,48.0,29.55,NNW,339,4.0,7.0,38,0.00,,,0.00,weatherlink.com 1.10,2013-06-24 05:02:00,
2013-06-23 21:17:00,74.4,48.0,29.55,NE,35,5.0,8.0,39,0.00,,,0.00,weatherlink.com 1.10,2013-06-24 05:17:00,
2013-06-23 21:32:00,74.2,48.0,29.56,NE,53,2.0,7.0,39,0.00,,,0.00,weatherlink.com 1.10,2013-06-24 05:32:00,
2013-06-23 21:47:00,73.6,46.0,29.56,ENE,62,2.0,6.0,38,0.00,,,0.00,weatherlink.com 1.10,2013-06-24 05:47:00,
2013-06-23 22:02:00,73.4,46.0,29.55,NE,41,3.0,6.0,38,0.00,,,0.00,weatherlink.com 1.10,2013-06-24 06:02:00,
2013-06-23 22:32:00,72.2,46.0,29.56,NE,49,4.0,6.0,39,0.00,,,0.00,weatherlink.com 1.10,2013-06-24 06:32:00,
2013-06-23 23:02:00,71.0,46.0,29.56,NE,46,1.0,3.0,41,0.00,,,0.00,weatherlink.com 1.10,2013-06-24 07:02:00,
2013-06-23 23:17:00,70.2,46.0,29.56,NE,55,2.0,5.0,42,0.00,,,0.00,weatherlink.com 1.10,2013-06-24 07:17:00,
2013-06-23 23:47:00,69.7,45.0,29.56,NE,51,5.0,5.0,42,0.00,,,0.00,weatherlink.com 1.10,2013-06-24 07:47:00,